EHI
0 0 0 0 0 0 0 0 0 0 0 0 0 0 0 0 0 0 0 0 0 0 0 0 0 0 0 0 0 0 0 0 0 0 0 0 0 0 0 0 0 0 0
0 0 0 0 0 0 0 0 0 0 0 0 0 0 0 0 0 0 0 0 0 0 0 0 0 0 0 0 0 0 0 0 0 0 0 0 0 0 0 0 0 0 0
0 0 0 0 0 0 0 0 0 0 0 0 0 0 0 0 0 0 0 0 0 0 0 0 0 0 0 0 0 0 0 0 0 0 0 0 0 0 0 0 0 0 0
0 0 0 0 0 0 0 0 0 0 0 0 0 0 0 0 0 0 0 0 0 0 0 0 0 0 0 0 0 0 0 0 0 0 0 0 0 0 0 0 0 0 0
0 0 0 0 0 0 0 0 0 0 0 0 0 0 0 0 0 0 0 0 0 0 0 0 0 0 0 0 0 0 0 0 0 0 0 0 0 0 0 0 0 0 0
0 0 0 0 0 0 0 0 0 0 0 0 0 0 0 0 0 0 0 0 0 0 0 0 0 0 0 0 0 0 0 0 0 0 0 0 0 0 0 0 0 0 0
0 0 0 0 0 0 0 0 0 0 0 0 0 0 0 0 0 0 0 0 0 0 0 0 0 0 0 0 0 0 0 0 0 0 0 0 0 0 0 0 0 0 0
0 0 0 0 0 0 0 0 0 0 0 0 0 0 0 0 0 0 0 0 0 0 0 0 0 0 0 0 0 0 0 0 0 0 0 0 0 0 0 0 0 0 0
0 0 0 0 0 0 0 0 0 0 0 0 0 0 0 0 0 0 0 0 0 0 0 0 0 0 0 0 0 0 0 0 0 0 0 0 0 0 0 0 0 0 0
0 0 0 0 0 0 0 0 0 0 0 0 0 0 0 0 0 0 0 0 0 0 0 0 0 0 0 0 0 0 0 0 0 0 0 0 0 0 0 0 0 0 0
0 0 0 0 0 0 0 0 0 0 0 0 0 0 0 0 0 0 0 0 0 0 0 0 0 0 0 0 0 0 0 0 0 0 0 0 0 0 0 0 0 0 0
0 0 0 0 0 0 0 0 0 0 0 0 0 0 0 0 0 0 0 0 0 0 0 0 0 0 0 0 0 0 0 0 0 0 0 0 0 0 0 0 0 0 0
0 0 0 0 0 0 0 0 0 0 0 0 0 0 0 0 0 0 0 0 0 0 0 0 0 0 0 0 0 0 0 0 0 0 0 0 0 0 0 0 0 0 0
0 0 0 0 0 0 0 0 0 0 0 0 0 0 0 0 0 0 0 0 0 0 0 0 0 0 0 0 0 0 0 0 0 0 0 0 0 0 0 0 0 0 0
0 0 0 0 0 0 0 0 0 0 0 0 0 0 0 0 0 0 0 0 0 0 0 0 0 0 0 0 0 0 0 0 0 0 0 0 0 0 0 0 0 0 0
0 0 0 0 0 0 0 0 0 0 0 0 0 0 0 0 0 0 0 0 0 0 0 0 0 0 0 0 0 0 0 0 0 0 0 0 0 0 0 0 0 0 0
0 0 0 0 0 0 0 0 0 0 0 0 0 0 0 0 0 0 0 0 0 0 0 0 0 0 0 0 0 0 0 0 0 0 0 0 0 0 0 0 0 0 0
0 0 0 0 0 0 0 0 0 0 0 0 0 0 0 0 0 0 0 0 0 0 0 0 0 0 0 0 0 0 0 0 0 0 0 0 0 0 0 0 0 0 0
0 0 0 0 0 0 0 0 0 0 0 0 0 0 0 0 0 0 0 0 0 0 0 0 0 0 0 0 0 0 0 0 0 0 0 0 0 0 0 0 0 0 0
0 0 0 0 0 0 0 0 0 0 0 0 0 0 0 0 0 0 0 0 0 0 0 0 0 0 0 0 0 0 0 0 0 0 0 0 0 0 0 0 0 0 0
0 0 0 0 0 0 0 0 0 0 0 0 0 0 0 0 0 0 0 0 0 0 0 0 0 0 0 0 0 0 0 0 0 0 0 0 0 0 0 0 0 0 0
0 0 0 0 0 0 0 0 0 0 0 0 0 0 0 0 0 0 0 0 0 0 0 0 0 0 0 0 0 0 0 0 0 0 0 0 0 0 0 0 0 0 0
0 0 0 0 0 0 0 0 0 0 0 0 0 0 0 0 0 0 0 0 0 0 0 0 0 0 0 0 0 0 0 0 0 0 0 0 0 0 0 0 0 0 0
0 0 0 0 0 0 0 0 0 0 0 0 0 0 0 0 0 0 0 0 0 0 0 0 0 0 0 0 0 0 0 0 0 0 0 0 0 0 0 0 0 0 0
0 0 0 0 0 0 0 0 0 0 0 0 0 0 0 0 0 0 0 0 0 0 0 0 0 0 0 0 0 0 0 0 0 0 0 0 0 0 0 0 0 0 0
0 0 0 0 0 0 0 0 0 0 0 0 0 0 0 0 0 0 0 0 0 0 0 0 0 0 0 0 0 0 0 0 0 0 0 0 0 0 0 0 0 0 0
Wind_Speed
14 13 13 13 14 14 12 12 11 11 10 11 12 13 15 16 17 17 18 17 18 17 15 16 15 13 10 9 8 8 7 6 5 5 5 8 11 9 7 6 6 6 5
13 12 12 12 12 13 13 13 12 12 11 11 12 13 14 15 17 18 19 17 19 20 19 18 18 12 14 12 11 12 10 9 7 7 7 7 8 9 8 7 6 5 6
12 12 12 13 13 14 13 13 12 12 11 11 12 13 14 16 17 19 19 19 20 21 21 22 20 17 17 13 14 13 11 9 7 7 7 6 5 7 8 7 7 7 6
10 10 11 11 12 13 14 14 14 13 12 11 12 14 15 16 17 18 19 19 20 20 20 20 21 22 21 18 15 15 12 12 10 9 7 6 6 7 7 7 7 7 5
11 11 10 10 11 11 12 13 13 13 12 11 12 12 14 14 14 16 17 18 19 21 21 21 21 22 23 20 16 16 16 13 12 11 8 7 8 8 9 8 7 5 5
12 12 12 11 10 10 11 12 12 12 13 12 12 12 14 13 18 24 21 18 19 21 22 21 20 20 23 29 28 26 25 21 18 14 12 12 12 10 10 9 7 5 4
11 11 10 11 12 12 13 13 13 13 13 13 13 13 14 17 24 26 26 19 19 21 22 20 17 17 21 21 26 29 27 27 25 18 17 15 13 13 13 12 9 6 4
12 11 11 12 13 14 15 15 15 14 14 14 14 15 16 17 22 25 24 21 21 22 22 21 20 20 21 23 21 20 20 21 22 15 11 10 9 12 11 10 9 6 3
14 14 13 12 13 15 16 18 17 16 16 15 14 15 16 17 21 23 25 15 17 21 20 20 21 22 27 32 23 21 20 17 21 19 12 11 14 16 13 8 9 7 4
16 16 15 14 13 15 18 19 18 17 18 18 17 16 17 17 20 23 23 14 16 16 16 18 21 25 27 34 25 22 22 19 17 17 15 15 14 16 18 10 8 8 5
16 16 17 17 16 18 19 18 19 19 20 20 20 19 17 18 21 24 24 15 16 15 14 15 16 28 30 33 30 19 21 18 17 17 15 14 12 11 11 10 8 7 6
17 18 19 18 18 17 19 19 19 19 20 21 20 21 17 15 17 20 25 26 24 17 15 13 14 26 31 32 29 24 27 21 14 14 14 14 13 12 10 9 9 7 5
19 20 20 21 19 18 19 20 18 17 17 17 17 17 16 13 14 22 24 27 29 21 14 19 21 25 28 26 31 30 22 16 15 15 15 12 11 11 10 9 8 6 4
21 22 20 20 20 18 16 16 16 16 16 17 17 17 15 13 12 10 11 13 19 21 16 16 23 24 22 20 19 23 16 14 14 13 13 11 11 11 10 9 8 6 4
22 21 20 19 19 18 17 16 18 17 18 20 17 17 16 16 15 16 12 11 11 13 12 12 12 12 15 15 15 15 14 13 13 11 11 12 11 10 9 8 7 6 5
20 19 17 16 16 16 17 18 25 28 33 37 37 33 24 28 29 25 23 24 25 22 15 13 13 14 15 16 16 16 14 14 13 12 12 12 12 11 10 8 7 6 5
20 19 16 16 16 16 16 17 17 19 28 33 35 37 37 36 33 29 26 24 25 24 14 13 14 14 14 14 14 14 15 15 14 14 14 13 12 11 10 9 8 6 5
20 20 18 16 15 15 16 16 16 16 17 16 21 29 30 27 26 27 26 20 15 17 12 13 13 13 13 13 13 13 13 13 13 12 12 12 11 11 10 9 8 7 5
19 15 15 15 15 15 15 16 15 17 16 15 15 19 20 20 21 24 22 14 12 12 12 12 11 11 12 12 12 13 13 12 13 13 12 13 11 11 10 9 7 8 6
15 20 19 16 15 15 14 14 14 14 14 14 14 14 11 10 10 11 12 10 9 9 11 11 10 10 10 11 11 11 12 12 13 12 12 11 10 9 9 9 7 6 5
14 15 19 16 14 14 13 13 13 12 12 13 13 14 17 11 9 9 6 7 5 5 10 11 11 11 11 10 10 12 13 12 11 11 11 10 9 8 7 6 6 5 4
13 13 13 13 13 12 12 11 10 11 12 14 11 11 15 9 7 3 2 5 6 7 9 11 11 10 11 12 12 13 13 12 12 12 11 10 9 8 7 6 5 4 5
12 13 12 12 11 13 11 9 7 8 8 8 8 7 6 5 5 6 7 8 9 9 9 9 10 10 10 10 10 11 12 12 12 13 13 11 9 8 7 6 6 5 5
12 12 12 11 10 10 10 10 9 9 8 8 8 7 7 7 7 8 8 8 8 9 9 9 10 14 17 12 10 9 9 11 11 11 13 11 9 7 6 5 6 7 6
11 11 11 10 10 9 10 10 10 9 9 8 8 7 8 8 8 8 8 9 10 11 12 11 10 12 16 16 13 11 15 16 13 10 9 8 8 7 6 6 5 6 7
11 11 10 9 9 9 9 9 10 10 9 9 8 8 8 8 9 9 8 9 9 10 10 10 12 13 14 12 14 15 14 14 13 11 8 6 7 6 7 6 8 7 7
Wind_Direction
14 14 15 15 12 6 353 334 315 297 278 259 245 233 229 227 224 222 219 208 207 208 207 208 209 198 190 184 184 183 183 181 165 161 163 162 177 188 190 213 232 242 237
2 2 5 6 7 7 2 352 336 316 295 270 255 244 235 231 228 227 226 218 209 207 205 207 210 199 200 191 188 188 183 184 176 167 171 172 189 193 198 213 224 236 246
354 354 356 358 358 357 353 350 346 332 311 287 263 251 242 236 232 230 231 226 220 216 207 205 204 197 203 197 193 189 180 177 184 168 165 169 177 189 200 210 222 232 233
346 347 351 351 349 346 343 343 342 337 324 302 275 259 250 243 238 234 233 232 227 224 219 212 205 200 201 197 197 192 177 177 185 180 170 174 175 172 189 199 203 212 215
335 336 339 338 339 337 337 336 333 330 325 314 292 269 257 250 243 238 235 234 232 228 224 219 214 208 204 198 197 192 181 179 183 188 187 186 188 175 192 186 193 198 216
324 324 325 327 328 329 329 326 323 322 321 317 302 282 267 256 249 242 237 234 233 232 228 222 216 210 208 206 205 198 191 184 183 184 192 199 199 188 172 172 175 188 194
306 309 312 318 322 324 322 319 315 315 313 309 303 292 277 265 258 251 241 235 235 234 231 225 216 210 204 206 209 205 203 203 194 188 191 197 190 183 172 173 178 185 180
298 300 304 310 313 315 314 310 307 306 302 299 295 290 282 272 264 259 251 239 237 236 233 229 221 213 205 202 200 202 203 204 202 199 205 199 184 172 171 166 165 174 217
295 296 298 302 304 306 305 302 302 299 294 288 284 281 277 274 267 262 257 248 241 236 233 230 225 218 209 203 198 199 199 202 202 195 200 186 170 164 161 152 156 162 198
296 295 295 295 293 294 295 295 294 291 286 285 280 275 272 270 265 259 255 250 247 238 227 225 225 220 211 204 201 197 196 192 183 181 186 182 175 172 173 173 173 175 173
301 297 294 292 291 290 290 287 287 285 284 280 277 274 268 264 262 256 249 243 248 242 229 220 219 220 215 209 205 204 202 184 179 177 178 179 179 177 175 176 185 187 182
304 297 294 293 291 288 286 284 282 280 277 274 272 270 265 258 252 251 246 243 244 243 234 220 213 212 212 209 208 203 200 184 183 180 179 180 175 171 168 171 176 185 193
302 298 296 295 290 286 283 281 280 276 271 270 267 266 265 258 252 248 244 243 243 242 234 217 207 207 209 209 210 200 194 186 185 183 181 176 169 160 155 157 160 165 192
300 299 298 296 293 288 283 279 276 273 271 271 268 266 265 259 251 243 238 239 240 243 230 208 201 202 204 202 205 199 193 189 189 184 173 160 151 152 156 154 156 160 184
297 296 295 292 289 287 281 274 275 268 267 272 273 272 270 264 255 244 236 235 231 229 196 180 182 185 198 198 196 190 185 179 179 172 159 150 150 151 151 150 151 160 180
297 296 293 291 288 285 283 280 275 274 276 273 270 267 267 264 265 262 251 242 243 234 194 182 183 186 195 195 189 180 176 173 168 161 157 154 153 154 153 152 157 172 185
295 294 291 288 286 284 283 283 285 284 281 280 277 273 266 261 257 254 251 246 242 233 207 191 188 188 192 191 183 175 172 168 165 163 159 156 154 154 153 155 161 167 178
292 289 286 284 283 281 280 279 281 284 287 285 287 286 281 272 264 258 246 237 236 229 206 194 190 187 186 182 174 170 166 163 162 158 152 149 149 148 149 153 158 166 175
293 289 287 285 282 279 277 276 276 276 278 283 286 287 285 281 282 272 245 223 225 222 198 190 186 182 177 170 164 162 160 160 156 150 146 145 145 146 150 155 159 167 179
296 293 293 289 285 281 278 276 275 275 277 279 278 279 283 283 278 269 224 206 218 218 184 176 170 160 154 154 154 154 154 152 149 143 140 141 144 149 152 156 160 167 182
300 298 296 293 289 285 280 276 274 275 276 276 279 283 286 283 279 271 212 191 203 187 156 149 142 141 140 143 147 151 151 148 144 139 137 140 142 143 147 155 162 173 192
306 305 304 303 302 301 295 281 272 272 275 280 287 294 298 299 292 278 133 117 107 111 128 134 136 140 146 148 151 151 150 148 145 140 139 140 143 147 152 158 166 181 203
313 312 314 317 320 324 328 326 310 298 301 312 321 328 342 4 26 60 81 92 101 110 118 125 129 128 127 132 141 148 150 150 146 144 142 144 149 154 159 165 177 193 215
321 322 326 331 337 341 345 349 353 357 1 4 7 13 22 32 43 57 69 79 89 96 101 108 118 126 126 125 126 130 130 130 132 138 141 145 149 153 160 173 192 208 226
331 332 334 339 344 349 351 354 358 2 10 16 22 29 36 45 52 57 64 74 84 90 97 103 112 120 123 122 120 122 127 126 126 128 133 138 147 156 168 188 205 219 229
342 342 343 346 350 354 358 1 5 8 13 20 29 37 45 51 57 61 66 74 83 87 88 92 102 109 111 110 116 120 124 129 130 132 134 141 154 171 184 205 217 227 240